Location: Newark
(36.6843°N, 3.3697°E)
Time: 00:50:20
(UTC+00:00)

Envisat - Visible Passes

Search period start: 06 December 2019 00:00
Search period end: 16 December 2019 00:00
Orbit: 764 x 766 km, 98.1° (Epoch: 05 December)

Date Brightness Start Highest point End Pass type
(mag) Time Alt. Az. Time Alt. Az. Time Alt. Az.
06 Dec 5.8 05:33:43 10° NE 05:37:27 20° E 05:41:09 10° SE visible
06 Dec 4.4 18:23:57 10° SSW 18:28:40 39° W 18:33:25 10° NNW visible
07 Dec 2.9 17:46:46 10° SSE 17:51:51 88° ENE 17:56:57 10° NNW visible
08 Dec 4.8 05:58:24 10° NNE 06:03:06 37° E 06:07:45 10° SSE visible
08 Dec 3.5 17:10:34 10° SE 17:15:13 38° ENE 17:19:53 10° N visible
08 Dec 5.4 18:50:27 10° SW 18:54:19 22° W 18:58:11 10° NW visible
09 Dec 6.0 05:23:03 10° NE 05:26:04 16° E 05:29:05 10° SE visible
09 Dec 3.9 18:12:27 10° S 18:17:21 50° W 18:22:18 10° NNW visible
10 Dec 2.9 17:35:34 10° SSE 17:40:35 69° ENE 17:45:39 10° N visible
10 Dec 6.2 19:18:23 10° WSW 19:20:03 11° W 19:21:44 10° WNW visible
11 Dec 5.2 05:47:23 10° NE 05:51:46 29° E 05:56:06 10° SSE visible
11 Dec 3.7 16:59:39 10° SE 17:04:01 30° ENE 17:08:24 10° N visible
11 Dec 5.0 18:38:40 10° SSW 18:42:57 28° W 18:47:17 10° NW visible
12 Dec 6.2 05:12:47 10° ENE 05:14:41 12° E 05:16:34 10° ESE visible
12 Dec 3.4 18:01:02 10° S 18:06:03 66° WSW 18:11:07 10° NNW visible
13 Dec 4.0 06:12:23 10° NNE 06:17:21 52° E 06:22:17 10° S visible
13 Dec 3.1 17:24:25 10° SSE 17:29:21 53° ENE 17:34:18 10° N visible
13 Dec 5.9 19:05:44 10° SW 19:08:39 15° W 19:11:34 10° WNW visible
14 Dec 5.6 05:36:28 10° NE 05:40:24 22° E 05:44:20 10° SE visible
14 Dec 4.6 18:27:00 10° SSW 18:31:37 35° W 18:36:16 10° NNW visible
15 Dec 3.0 17:49:42 10° SSE 17:54:46 84° WSW 17:59:53 10° NNW visible
